KRDK

Details ICAO KRDK
Name Red Oak Municipal
Region United States
Timezone America/Chicago (UTC-5.0)
Plans Departing 4
Arriving 1
Stats Elevation 1,044 ft / 318 m (AMSL)
Location 41.010934° -95.258670°
Runways 3
Magnetic Variation 2.025° E
Sunrise 2018-05-23 10:57:51 UTC / 2018-05-23 05:57:51 Local
Sunset 2018-05-24 01:40:38 UTC / 2018-05-23 20:40:38 Local
Advertisement - Login to hide

Runways

ID Width Length Bearing (true) Bearing (mag) Surface Threshold Offset Overrun Length
05 75 ft / 23 m 5,105 ft / 1,556 m 57.79° 55.77° Concrete 1,001 ft / 305 m 0 ft / 0 m
13 210 ft / 64 m 2,052 ft / 625 m 141.64° 139.62° Grass 0 ft / 0 m 0 ft / 0 m
17 59 ft / 18 m 2,904 ft / 885 m 174.43° 172.41° Concrete 0 ft / 0 m 449 ft / 137 m
23 75 ft / 23 m 5,105 ft / 1,556 m 237.80° 235.78° Concrete 0 ft / 0 m 0 ft / 0 m
31 210 ft / 64 m 2,052 ft / 625 m 321.64° 319.62° Grass 0 ft / 0 m 0 ft / 0 m
35 59 ft / 18 m 2,904 ft / 885 m 354.43° 352.41° Concrete 0 ft / 0 m 299 ft / 91 m

Map

Weather


0- 5 10 15 20 25 30 35+ Temperature / ° C

Clouds and Precipitation
Forecast for 2018-05-23 12:00 UTC. Updated 2 hours ago

Ground ~20,000 ft ~40,000 ft Winds

METAR

KRDK 231335Z AUTO 17008KT 10SM CLR 24/19 A3009 RMK AO2

TAF

Not found

Frequencies

Recorded 119.77 MHz AWOS 3
Unicom 122.80 MHz CTAF
Warning: Do not use this data for real-world aviation or navigation. No guarantee of current accuracy is given.